Date String (YYYY-MM-DD hh:mm:ss) UTC,Instrument flags,absolute air pressure of the measurement (hPa),sample flow rate (lpm),inlet stack bypass flow (lpm),air temperature of the measurement (°C),ambient temperature measured by the external sensor (°C),aerosol sample conditioner tube jacket temperature (°C),OPC LED temperature (°C),internal box temperature (°C),relative humidity of the measurement (%),span deviation,mass concentration of particles derived from Lorenz-Mie calculation of OPC scattering (μg/m³),mass concentration of particles derived from Lorenz-Mie calculation of OPC scattering (μg/m³),mass concentration of particles derived from Lorenz-Mie calculation of OPC scattering (μg/m³)
DateTimeUTC,F1_M11,P_M11,Q1_M11,Q2_M11,T1_M11,T2_M11,T3_M11,T4_M11,T5_M11,U1_M11,ZSPAN_M11,X0_M11,X2_M11,X1_M11
2023-08-02 22:00:00,SystemResetWarning,0834.5,5.00,000.00,029.1,027.0,000.0,037.4,030.6,32.5,0000.0,0005.36,0003.33,0002.84
2023-08-02 22:01:00,SystemResetWarning,0834.5,4.99,000.00,029.1,027.4,000.0,037.4,030.7,32.1,0000.0,0005.43,0003.34,0002.87
2023-08-02 22:02:00,SystemResetWarning,0834.5,5.01,000.00,029.1,027.6,000.0,037.5,030.8,32.6,0000.0,0005.99,0003.41,0002.90
2023-08-02 22:03:00,SystemResetWarning,0834.5,4.98,000.00,029.2,027.2,000.0,037.4,030.8,31.7,0000.0,0005.90,0003.41,0002.93
2023-08-02 22:04:00,SystemResetWarning,0834.4,5.00,000.00,029.1,025.7,000.0,037.3,030.5,31.6,0000.0,0005.82,0003.44,0002.96
2023-08-02 22:05:00,SystemResetWarning,0834.4,5.00,000.00,029.1,025.1,000.0,037.2,030.4,31.5,0000.0,0005.66,0003.46,0003.02
2023-08-02 22:06:00,SystemResetWarning,0834.4,5.01,000.00,029.0,025.2,000.0,037.2,030.2,31.8,0000.0,0005.80,0003.50,0003.07
2023-08-02 22:07:00,SystemResetWarning,0834.4,5.01,000.00,028.9,025.6,000.0,037.3,030.2,32.7,0000.0,0005.81,0003.52,0003.11
2023-08-02 22:08:00,SystemResetWarning,0834.4,5.00,000.00,028.9,026.1,000.0,037.3,030.3,31.9,0000.0,0005.84,0003.53,0003.12
2023-08-02 22:09:00,SystemResetWarning,0834.4,5.00,000.00,029.0,026.5,000.0,037.3,030.4,32.5,0000.0,0005.89,0003.54,0003.13
2023-08-02 22:10:00,SystemResetWarning,0834.4,5.00,000.00,029.0,026.9,000.0,037.3,030.6,32.2,0000.0,0005.75,0003.51,0003.13
2023-08-02 22:11:00,SystemResetWarning,0834.4,5.00,000.00,029.0,027.3,000.0,037.4,030.7,32.9,0000.0,0005.91,0003.53,0003.13
2023-08-02 22:12:00,SystemResetWarning,0834.4,4.99,000.00,029.1,027.6,000.0,037.4,030.7,33.5,0000.0,0006.25,0003.54,0003.12
2023-08-02 22:13:00,SystemResetWarning,0834.3,4.98,000.00,029.1,027.3,000.0,037.4,030.7,32.2,0000.0,0006.57,0003.52,0003.12
2023-08-02 22:14:00,SystemResetWarning,0834.3,5.00,000.00,029.1,025.9,000.0,037.3,030.5,32.2,0000.0,0007.57,0003.53,0003.12
2023-08-02 22:15:00,SystemResetWarning,0834.4,5.01,000.00,029.0,025.1,000.0,037.2,030.3,32.4,0000.0,0007.51,0003.51,0003.12
2023-08-02 22:16:00,SystemResetWarning,0834.5,5.01,000.00,028.9,025.1,000.0,037.1,030.1,33.1,0000.0,0007.48,0003.49,0003.11
2023-08-02 22:17:00,SystemResetWarning,0834.4,5.00,000.00,028.9,025.5,000.0,037.2,030.1,33.2,0000.0,0007.56,0003.46,0003.11
2023-08-02 22:18:00,SystemResetWarning,0834.6,5.00,000.00,028.9,025.9,000.0,037.2,030.2,33.3,0000.0,0007.75,0003.45,0003.10
2023-08-02 22:19:00,SystemResetWarning,0834.5,5.00,000.00,028.9,026.4,000.0,037.2,030.4,33.7,0000.0,0007.76,0003.46,0003.10
2023-08-02 22:20:00,SystemResetWarning,0834.4,4.99,000.00,028.9,026.8,000.0,037.3,030.5,33.2,0000.0,0007.73,0003.45,0003.09
2023-08-02 22:21:00,SystemResetWarning,0834.5,4.99,000.00,029.0,027.2,000.0,037.3,030.6,32.9,0000.0,0007.82,0003.47,0003.09
2023-08-02 22:22:00,SystemResetWarning,0834.3,5.00,000.00,029.0,027.5,000.0,037.3,030.7,33.2,0000.0,0007.83,0003.47,0003.09
2023-08-02 22:23:00,SystemResetWarning,0834.3,5.00,000.00,029.1,027.4,000.0,037.3,030.7,32.8,0000.0,0007.74,0003.47,0003.10
2023-08-02 22:24:00,SystemResetWarning,0834.3,5.00,000.00,029.0,026.1,000.0,037.2,030.5,32.9,0000.0,0007.47,0003.46,0003.11
2023-08-02 22:25:00,SystemResetWarning,0834.3,5.00,000.00,029.0,025.1,000.0,037.1,030.3,33.3,0000.0,0006.15,0003.42,0003.10
2023-08-02 22:26:00,SystemResetWarning,0834.4,5.01,000.00,028.9,025.1,000.0,037.1,030.1,33.3,0000.0,0006.08,0003.42,0003.11
2023-08-02 22:27:00,SystemResetWarning,0834.4,5.01,000.00,028.8,025.4,000.0,037.1,030.1,34.2,0000.0,0006.01,0003.42,0003.12
2023-08-02 22:28:00,SystemResetWarning,0834.3,4.99,000.00,028.8,025.9,000.0,037.2,030.2,33.7,0000.0,0006.24,0003.46,0003.13
2023-08-02 22:29:00,SystemResetWarning,0834.3,5.00,000.00,028.8,026.4,000.0,037.2,030.3,33.8,0000.0,0006.16,0003.47,0003.13
2023-08-02 22:30:00,SystemResetWarning,0834.3,5.00,000.00,028.9,026.8,000.0,037.2,030.4,33.3,0000.0,0006.19,0003.47,0003.13
2023-08-02 22:31:00,SystemResetWarning,0834.4,5.00,000.00,028.9,027.2,000.0,037.2,030.5,33.9,0000.0,0006.14,0003.47,0003.13
2023-08-02 22:32:00,SystemResetWarning,0834.3,5.00,000.00,028.9,027.5,000.0,037.3,030.6,34.2,0000.0,0006.01,0003.46,0003.13
2023-08-02 22:33:00,SystemResetWarning,0834.4,4.99,000.00,029.0,027.5,000.0,037.3,030.7,33.9,0000.0,0005.78,0003.42,0003.13
2023-08-02 22:34:00,SystemResetWarning,0834.3,4.99,000.00,029.0,026.3,000.0,037.2,030.5,34.2,0000.0,0005.60,0003.41,0003.14
2023-08-02 22:35:00,SystemResetWarning,0834.6,5.00,000.00,028.9,025.2,000.0,037.0,030.4,34.7,0000.0,0005.52,0003.41,0003.14
2023-08-02 22:36:00,SystemResetWarning,0834.5,5.03,000.00,028.9,025.1,000.0,037.0,030.2,35.3,0000.0,0005.96,0003.46,0003.15
2023-08-02 22:37:00,SystemResetWarning,0834.2,5.00,000.00,029.0,025.5,000.0,037.1,030.3,35.1,0000.0,0006.51,0003.47,0003.16
2023-08-02 22:38:00,SystemResetWarning,0834.4,4.99,000.00,029.2,025.9,000.0,037.1,030.4,33.8,0000.0,0006.49,0003.49,0003.17
2023-08-02 22:39:00,SystemResetWarning,0834.4,5.00,000.00,029.3,026.4,000.0,037.2,030.5,33.9,0000.0,0006.56,0003.48,0003.17
2023-08-02 22:40:00,SystemResetWarning,0834.3,5.01,000.00,029.4,026.8,000.0,037.2,030.6,34.1,0000.0,0006.10,0003.48,0003.17
2023-08-02 22:41:00,SystemResetWarning,0834.5,5.00,000.00,029.5,027.2,000.0,037.3,030.7,34.1,0000.0,0006.09,0003.49,0003.18
2023-08-02 22:42:00,SystemResetWarning,0834.2,4.99,000.00,029.6,027.5,000.0,037.4,030.8,34.6,0000.0,0006.23,0003.52,0003.19
2023-08-02 22:43:00,SystemResetWarning,0834.1,4.99,000.00,029.7,027.6,000.0,037.5,030.9,34.3,0000.0,0006.26,0003.53,0003.21
2023-08-02 22:44:00,SystemResetWarning,0834.1,5.00,000.00,029.7,026.6,000.0,037.4,030.7,34.1,0000.0,0006.28,0003.55,0003.22
2023-08-02 22:45:00,SystemResetWarning,0834.1,5.00,000.00,029.6,025.4,000.0,037.4,030.4,33.2,0000.0,0006.33,0003.57,0003.23
2023-08-02 22:46:00,SystemResetWarning,0834.0,5.00,000.00,029.6,025.2,000.0,037.3,030.3,33.4,0000.0,0006.40,0003.58,0003.23
2023-08-02 22:47:00,SystemResetWarning,0834.0,5.01,000.00,029.5,025.4,000.0,037.4,030.2,33.9,0000.0,0006.15,0003.55,0003.23
2023-08-02 22:48:00,SystemResetWarning,0834.0,5.01,000.00,029.4,025.9,000.0,037.5,030.3,34.2,0000.0,0005.70,0003.54,0003.23
2023-08-02 22:49:00,SystemResetWarning,0834.1,5.00,000.00,029.4,026.4,000.0,037.5,030.4,34.5,0000.0,0006.18,0003.55,0003.22
2023-08-02 22:50:00,SystemResetWarning,0834.0,4.99,000.00,029.5,026.8,000.0,037.6,030.6,35.0,0000.0,0006.21,0003.56,0003.23
2023-08-02 22:51:00,SystemResetWarning,0834.0,5.02,000.00,029.5,027.2,000.0,037.6,030.7,34.8,0000.0,0006.20,0003.56,0003.22
2023-08-02 22:52:00,SystemResetWarning,0834.1,4.97,000.00,029.7,027.5,000.0,037.6,030.8,33.6,0000.0,0006.23,0003.56,0003.21
2023-08-02 22:53:00,SystemResetWarning,0834.1,5.00,000.00,029.8,027.7,000.0,037.7,030.9,33.7,0000.0,0006.46,0003.58,0003.22
2023-08-02 22:54:00,SystemResetWarning,0834.1,5.00,000.00,029.9,026.7,000.0,037.6,030.8,33.1,0000.0,0006.53,0003.59,0003.22
2023-08-02 22:55:00,SystemResetWarning,0834.0,5.00,000.00,029.9,025.4,000.0,037.5,030.5,33.8,0000.0,0006.60,0003.60,0003.22
2023-08-02 22:56:00,SystemResetWarning,0833.9,5.00,000.00,029.8,025.1,000.0,037.5,030.4,34.3,0000.0,0006.61,0003.59,0003.21
2023-08-02 22:57:00,SystemResetWarning,0833.9,5.01,000.00,029.7,025.4,000.0,037.6,030.3,34.3,0000.0,0007.43,0003.59,0003.21
2023-08-02 22:58:00,SystemResetWarning,0833.9,5.00,000.00,029.7,025.8,000.0,037.6,030.4,34.0,0000.0,0007.41,0003.58,0003.19
2023-08-02 22:59:00,SystemResetWarning,0833.8,4.99,000.00,029.7,026.3,000.0,037.7,030.5,34.1,0000.0,0007.20,0003.54,0003.17
